Retour au catalogue

SL-3 R/B

ActifPO
NORAD 13068·ROCKET BODY·🇷🇺 Russia

Lancé Feb 19, 1982 depuis Plesetsk Cosmodrome

Loading…

Prochains Passages (prochaines 24 heures)

TLE

FraisSource: Space-Track

Époque: Sep 14, 2026, 21:36 UTC

1 13068U 82013B   26257.90042039  .00002590  00000-0  10752-3 0  9995
2 13068  81.1723 298.7179 0020477 259.5041 100.3884 15.23295559433146

Suivez SL-3 R/B en temps réel avec AllMySat

Download on the App Store